This demonstration page uses our WeatherBlox Daily Observations layout. Learn more.

Left ArrowRight Arrow

39.01783, -85.05884

Hourly Observations for July 21, 2018

Temp ( °F °C ) Dew Point ( °F °C ) Humidity (%) Winds ( mph kmh ) Pressure ( in mb ) Visibility ( mi km ) Precip ( " mm )
12:52 am 00:52 Cloudy 65 18.3 65 18.3 100 100 S 12 19 29.78 1008 10 16 0.00 0.00
1:52 am 01:52 Cloudy 66 18.9 65 18.3 96 96 S 10 17 29.76 1008 10 16 0.01 0.25
2:52 am 02:52 Cloudy 65 18.3 65 18.3 100 100 S 9 15 29.75 1008 10 16 0.00 0.00
3:52 am 03:52 Cloudy 65 18.3 65 18.3 100 100 SSW 12 19 29.73 1007 10 16 0.00 0.00
4:30 am 04:30 Cloudy 65 18.3 65 18.3 100 100 SSW 8 13 29.74 1007 9 14 0.00 0.00
4:44 am 04:44 Cloudy 65 18.3 65 18.3 100 100 SSW 8 13 29.74 1007 10 16 0.00 0.00
4:52 am 04:52 Cloudy 65 18.3 65 18.3 100 100 SSW 8 13 29.74 1007 10 16 0.00 0.00
5:52 am 05:52 Cloudy 65 18.3 65 18.3 100 100 SSW 7 11 29.74 1007 8 13 0.00 0.00
6:52 am 06:52 Cloudy 65 18.3 65 18.3 100 100 SSW 6 9 29.75 1007 9 14 0.00 0.00
7:52 am 07:52 Cloudy with Mist and Fog 65 18.3 65 18.3 100 100 SSW 8 13 29.75 1008 5 8 0.00 0.00
8:52 am 08:52 Cloudy with Mist and Fog 66 18.9 66 18.9 100 100 SSW 7 11 29.76 1008 4 6 0.00 0.00
9:52 am 09:52 Cloudy with Mist and Fog 68 20 66 18.9 93 93 SSW 6 9 29.77 1008 6 10 0.00 0.00
10:52 am 10:52 Cloudy 70 21.1 67 19.4 90 90 SSW 6 9 29.77 1008 8 13 0.00 0.00
11:52 am 11:52 Mostly Cloudy 74 23.3 68 20 82 82 SSW 10 17 29.75 1007 10 16 0.00 0.00
12:52 pm 12:52 Cloudy with Light Rain 75 23.9 67 19.4 76 76 SW 10 17 29.74 1007 10 16 0.00 0.03
1:19 pm 13:19 Cloudy with Heavy Rain 72 22.2 68 20 87 87 W 13 20 29.74 1007 2 3 0.02 0.51
1:33 pm 13:33 Cloudy with Light Rain 73 22.8 69 20.6 87 87 WSW 7 11 29.71 1006 7 11 0.11 2.79
1:52 pm 13:52 Cloudy 74 23.3 68 20 82 82 WSW 12 19 29.72 1007 10 16 0.11 2.79
2:52 pm 14:52 Cloudy 75 23.9 69 20.6 82 82 WSW 9 15 29.72 1006 10 16 0.00 0.03
3:52 pm 15:52 Cloudy 77 25 68 20 74 74 WSW 9 15 29.71 1006 10 16 0.00 0.03
4:05 pm 16:05 Cloudy with Rain 71 21.7 68 20 90 90 W 16 26 29.71 1006 4 6 0.00 0.03
4:08 pm 16:08 Cloudy with Heavy Rain 69 20.6 68 20 96 96 W 16 26 29.71 1006 3 5 0.01 0.25
4:19 pm 16:19 Cloudy with Heavy Rain 68 20 67 19.4 96 96 WSW 13 20 29.71 1006 2 3 0.09 2.29
4:41 pm 16:41 Cloudy with Light Rain 70 21.1 69 20.6 97 97 SW 8 13 29.71 1006 5 8 0.19 4.83
4:52 pm 16:52 Cloudy 70 21.1 69 20.6 97 97 SW 7 11 29.71 1006 10 16 0.19 4.83
5:52 pm 17:52 Mostly Cloudy 75 23.9 70 21.1 84 84 W 7 11 29.70 1006 10 16 0.00 0.00
6:52 pm 18:52 Cloudy 72 22.2 69 20.6 91 91 WSW 9 15 29.70 1006 10 16 0.00 0.03
7:52 pm 19:52 Cloudy with Light Rain 70 21.1 70 21.1 100 100 VRB 3 6 29.71 1006 3 5 0.03 0.76
8:52 pm 20:52 Cloudy 70 21.1 70 21.1 100 100 SW 3 6 29.70 1006 10 16 0.01 0.25
9:22 pm 21:22 Cloudy with Light Rain 70 21.1 70 21.1 100 100 SSW 5 7 29.71 1006 8 13 0.00 0.03
9:32 pm 21:32 Cloudy 70 21.1 70 21.1 100 100 S 5 7 29.71 1006 8 13 0.00 0.03
9:47 pm 21:47 Cloudy with Light Rain 70 21 70 21 100 100 Calm 29.71 1006 3 4 0.00 0.03
9:52 pm 21:52 Cloudy with Heavy Rain 70 21.1 70 21.1 100 100 Calm 29.70 1006 3 4 0.07 1.78
9:55 pm 21:55 Cloudy with Heavy Rain 70 21.1 70 21.1 100 100 S 3 6 29.71 1006 3 4 0.03 0.76
10:25 pm 22:25 Cloudy with Light Rain 70 21.1 70 21.1 100 100 SSW 3 6 29.71 1006 4 6 0.25 6.35
10:41 pm 22:41 Cloudy with Light Rain 70 21.1 70 21.1 100 100 Calm 29.71 1006 10 16 0.25 6.35
10:50 pm 22:50 Cloudy with Light Rain 70 21 70 21 100 100 Calm 29.71 1006 10 16 0.25 6.35
10:52 pm 22:52 Cloudy with Light Rain 70 21.1 70 21.1 100 100 VRB 3 6 29.70 1006 10 16 0.25 6.35
11:24 pm 23:24 Cloudy 70 21.1 70 21.1 100 100 SSW 5 7 29.68 1005 7 11 0.00 0.03
11:40 pm 23:40 Cloudy 70 21.1 70 21.1 100 100 SW 5 7 29.68 1005 7 11 0.00 0.03
11:48 pm 23:48 Cloudy 70 21 70 21 100 100 WSW 6 9 29.68 1005 8 13 0.00 0.03
11:52 pm 23:52 Cloudy 70 21.1 70 21.1 100 100 WSW 6 9 29.68 1005 9 14 0.00 0.03

Powered by AerisWeather